Simultaneous Nadir Overpasses (SNOs) Predictions

Prediction of SNOs between METOP-B and TERRA Satellite Orbit:

Table of predicted SNOs for the next 14.0 days since TLE Epoch: 8/24/2019
Index Date (METOP-B) Time (METOP-B) Lat,Lon (METOP-B) SZA (METOP-B ) Date (TERRA) Time (TERRA) Lat,Lon (TERRA) SZA (TERRA ) Distance(km) Time Diff (sec)
1 08/25/2019 22:44:29 81.32,-113.69 73.52 08/25/2019 22:44:45 81.32,-113.80 73.51 1.76 16
2 08/25/2019 23:35:09 -81.32, 53.88 106.45 08/25/2019 23:34:12 -81.31, 53.71 106.50 3.09 57
3 08/28/2019 18:18:50 81.31, -47.32 74.51 08/28/2019 18:18:58 81.32, -47.26 74.53 1.35 8
4 08/28/2019 19:09:30 -81.32, 120.30 105.44 08/28/2019 19:08:25 -81.32, 120.27 105.48 0.59 65
5 08/31/2019 13:02:37 -81.28,-150.51 104.76 08/31/2019 13:03:51 -81.21,-150.37 104.75 7.52 74
6 08/31/2019 13:53:12 81.31, 19.05 75.53 08/31/2019 13:53:13 81.31, 18.87 75.50 3.22 1
7 08/31/2019 14:43:52 -81.32,-173.28 104.42 08/31/2019 14:42:39 -81.32,-173.20 104.44 1.49 73
8 09/03/2019 08:36:55 -81.30, -82.54 103.53 09/03/2019 08:38:01 -81.30, -82.37 103.48 2.88 66
9 09/03/2019 09:27:34 81.31, 85.41 76.57 09/03/2019 09:27:27 81.31, 85.34 76.55 1.29 7
10 09/06/2019 04:11:15 -81.31, -15.75 102.42 09/06/2019 04:12:14 -81.31, -15.90 102.41 2.50 59




NCC Satellite Simultaneous Nadir Overpasses (SNOs) Prediction Service
